Погода в Мяделе

Беларусь     54°52′15″N   26°55′39″E
темп.,
°C
ветер,
м/с
пор.,
м/с
влажн.,
%
обл.,
%
осадки,
мм/ч
давл.,
гПа
погр.,
м
6 мая, чт
чт600:00+7юз3897100 2.8 1000445
03:00+7юз2898100 5.3 998450
06:00+6зюз2895100 4.7 997464
09:00+7зюз5983100 6.0 999921
12:00+8зюз71182100 1.0 10011459
15:00+7зюз71382100 1.8 10031505
18:00+8зюз7126937 1.1 10041685
21:00+5юз4118560 1.4 1006574
7 мая, пт
пт700:00+3ююз4128453 0.0 1006327
03:00+3юз41285100 0.0 1007413
06:00+4ююз41088100 0.0 1006469
09:00+7юз477898 0.1 1007804
12:00+11юз5760100 0.3 10061766
15:00+9юз2478100 0.8 1005650
18:00+7ююз2795100 1.8 1003553
21:00+6ююв2597100 4.4 1002220
8 мая, сб
сб800:00+6юз3798100 1.1 1001439
03:00+4сз4898100 1.4 1003652
06:00+3зсз51198100 2.1 1004805
09:00+4зсз61093100 3.9 1006922
12:00+7зсз7117079 0.4 10081604
15:00+8зсз7116482 1.2 10101887
18:00+7з610756 0.9 10111368
21:00+5зсз4108617 1.6 1013446
9 мая, вс
вс900:00+2зсз39931 0.0 1016196
03:000зсз24900 0.0 101974
06:000зюз23910 0.0 102163
09:00+5юз357690 0.0 1022392
12:00+10юз4554100 0.0 10231596
15:00+12юз4643100 0.0 10221940
18:00+12юз365257 0.0 10221696
21:00+7ю227368 0.0 102317
10 мая, пн
пн1000:00+8ю31173100 0.0 1023292
03:00+7ю4127228 0.0 1024339
06:00+6ю3127955 0.0 1024263
09:00+11ю5964100 0.0 1025426
12:00+16ю58535 0.0 1025912
15:00+18ю67470 0.0 10241224
18:00+17ююв58573 0.0 10241114
21:00+12ююв3107939 0.0 1024231